Location: Bishop�s Knoyle
(51.0728°N, 2.1714°W)
Time: 23:13:09
(UTC+00:00)

SPOT 1/Viking Rocket - Pass Details

Date: 18 September 2020
Orbit: 777 x 794 km, 98.5° (Epoch: 30 October)

Event Time Altitude Azimuth Distance (km) Brightness Sun altitude
Exits shadow 21:14:23 85° 83° (E) 796 3.4 -26.6°
Maximum altitude 21:14:24 86° 74° (ENE) 796 3.4 -26.6°
Drops below altitude 10° 21:19:37 10° 346° (NNW) 2,352 6.7 -27.2°
Sets 21:21:56 0° 346° (NNW) 3,283 7.6 -27.4°
